AirNav   Phillips 66 Aviation Fuel
 
 323 users online  

2NJ2 Sportland Pier Heliport
North Wildwood, New Jersey, USA

GOING TO NORTH WILDWOOD?


FAA INFORMATION EFFECTIVE 29 MARCH 2018

Location

FAA Identifier: 2NJ2
Lat/Long: 39-59-24.0000N / 074-48-05.0000W
39-59.400000N / 074-48.083333W
39.9900000 / -74.8013889
(estimated)
Elevation: 10 ft. / 3 m (estimated)
Variation: 11W (1995)
From city: 1 mile NE of NORTH WILDWOOD, NJ
Time zone: UTC -4 (UTC -5 during Standard Time)
Zip code: 08060

Heliport Operations

Heliport use: Private use. Permission required prior to landing
Activation date: 08/1997
Control tower: no
ARTCC: NEW YORK CENTER
FSS: MILLVILLE FLIGHT SERVICE STATION
Attendance: MAY-SEP 1700-0000
Wind indicator: yes
Segmented circle: no

Heliport Communications

UNICOM: 122.7
WX ASOS at VAY (3 nm SW): 119.325 (609-267-1176)
WX ASOS at PNE (11 nm NW): PHONE 215-677-0146
WX ASOS at TTN (17 nm N): 126.775 (609-538-8690)
WX AWOS-AV at N81 (19 nm S): 122.7

Nearby radio navigation aids

VOR radial/distance  VOR name  Freq  Var
GXUr275/9.5MC GUIRE VORTAC110.6012W
PNEr130/(11.0)NORTH PHILADELPHIA VOR112.0010W
ARDr173/16.5YARDLEY VOR/DME108.2010W
RBVr238/19.0ROBBINSVILLE VORTAC113.8010W
CYNr311/19.9COYLE VORTAC113.4010W
VCNr026/28.2CEDAR LAKE VOR/DME115.2010W
OODr057/31.4WOODSTOWN VORTAC112.8010W
ACYr352/33.7ATLANTIC CITY VORTAC108.6010W
COLr248/35.2COLTS NECK VOR/DME115.4011W
SBJr194/35.7SOLBERG VOR/DME112.9010W
PTWr121/37.5POTTSTOWN VORTAC116.5009W

 
NDB name  Hdg/Dist  Freq  Var  ID
LAKEHURST272/21.739611WNEL -. . .-..
AMBLER122/23.727512WING .. -. --.
RAINBOW035/37.636311WRNB .-. -. -...

Heliport Services

Runway Information

Helipad H1

Dimensions: 70 x 70 ft. / 21 x 21 m
Surface: wood
Traffic pattern: leftleft

Heliport Ownership and Management from official FAA records

Ownership: Privately-owned
Owner: SPORTLAND INVESTMENTS, INC
SPORTLAND PIER
N. WILDWOOD, NJ 08260
Phone 813-364-8230
Manager: MARC S SEXTON
SPORTLAND PIER
N. WILDWOOD, NJ 08260
Phone 609-729-3681

Heliport Operational Statistics

Aircraft based on the field: 2
Single engine airplanes: 1
Helicopters: 1
    

Instrument Procedures

There are no published instrument procedures at 2NJ2.

Some nearby airports with instrument procedures:

N14 - Flying W Airport (3 nm S)
KVAY - South Jersey Regional Airport (3 nm SW)
N73 - Red Lion Airport (6 nm SE)
KWRI - McGuire Field (Joint Base Mc Guire Dix Lakehurst) Airport (10 nm E)
KPNE - Northeast Philadelphia Airport (11 nm NW)
19N - Camden County Airport (14 nm SW)
N87 - Trenton-Robbinsville Airport (16 nm NE)
KTTN - Trenton Mercer Airport (17 nm N)
N81 - Hammonton Municipal Airport (19 nm S)
 
Loc | Ops | Rwys | IFR | FBO | Links
Com | Nav | Svcs | Stats | Notes

AirNav Hotels Sweepstakes
 
Area around 2NJ2 (Sportland Pier Heliport)
 
Road maps at: MapQuest Bing Google
 
Aerial photo
No photo
 
Sectional chart

 
Airport distance calculator
Flying to Sportland Pier Heliport? Find the distance to fly.

From to 2NJ2

Sunrise and sunset
Times for 20-Apr-2018
 Local
(UTC-4)
 Zulu
(UTC)
Morning civil twilight05:4709:47
Sunrise06:1510:15
Sunset19:4123:41
Evening civil twilight20:1000:10

Current date and time
Zulu (UTC)  20-Apr-2018 07:40:07
Local (UTC-4)  20-Apr-2018 03:40:07
 
METAR
KVAY 
4nm SW 
ASOS 119.325 609-267-1176
200654Z AUTO 30008G16KT 10SM CLR 03/M05 A3011 RMK AO2 SLP196 T00331050
KWRI 
10nm E 
200656Z AUTO 31007KT 10SM SCT031 BKN045 03/M03 A3007 RMK AO2 SLP183 T00261033 $
KPNE 
11nm NW 
200654Z 32008KT 10SM CLR 04/M04 A3012 RMK AO2 SLP200 T00391044
KTTN 
18nm N 
ASOS 133.70 609-538-8690
200653Z AUTO 30004KT 10SM BKN038 BKN049 02/M03 A3008 RMK AO2 SLP181 T00221033
TAF
KWRI 
10nm E 
200200Z 2002/2108 30012KT 9999 BKN060 QNH3002INS BECMG 2012/2013 32015G25KT 9999 FEW070 QNH3016INS BECMG 2021/2022 30009KT 9999 SKC QNH3024INS TX12/2020Z TN00/2008Z
KPNE 
11nm NW 
200522Z 2006/2106 31012KT P6SM BKN060 FM200800 31012KT P6SM SCT060 FM201300 31014G22KT P6SM SCT060 FM202200 33012KT P6SM SCT060 FM210300 32006KT P6SM SCT250
KTTN 
18nm N 
200522Z 2006/2106 31010KT P6SM BKN060 FM201000 32010KT P6SM SCT060 FM201300 32012G20KT P6SM SCT060 FM202200 34008KT P6SM SCT060 FM210300 34004KT P6SM SCT250
NOTAMs
Click for the latest NOTAMs
NOTAMs are issued by the DoD/FAA and will open in a separate window not controlled by AirNav.

 

 
 

Would you like to see your business listed on this page?

 If your business provides an interesting product or service to pilots, flight crews, aircraft, or users of the Sportland Pier Heliport, you should consider listing it here.  To start the listing process, click on the button below
 
Add a business
 

Other Pages about Sportland Pier Heliport

Update a link
 
Copyright © AirNav, LLC. All rights reserved. Privacy Policy  Contact